McKinney, TX

3:14 AM CST on February 21, 2017 (GMT -0600)
Collin County Regional

Weather History for KTKI - September, 2013

Change the Weather History Date:

Sunday, September 1, 2013

  Actual Average (KADS) Record (KADS)
Temperature  
Mean Temperature 91 °F -  
Max Temperature 104 °F 90 °F 107 °F (2000)
Min Temperature 80 °F 73 °F 69 °F (1996)
Cooling Degree Days 26    
Growing Degree Days 41 (Base 50)    
Moisture  
Dew Point 65 °F    
Average Humidity 44    
Maximum Humidity 62    
Minimum Humidity 26    
Precipitation  
Precipitation 0.00 in - - ()
Sea Level Pressure  
Sea Level Pressure 29.81 in    
Wind  
Wind Speed 6 mph (South)    
Max Wind Speed 14 mph    
Max Gust Speed 21 mph    
Visibility 10 miles    
Events Thunderstorm    
Averages and records for this station are not official NWS values.
T = Trace of Precipitation, MM = Missing Value Source: NWS Daily Summary

Daily Weather History Graph

Daily Weather History Graph

Search for Another Location

Airport or City:

Trip Planner

Search our weather history database for the weather conditions in past years. The results will help you decide how hot, cold, wet, or windy it might be!

Date:

Astronomy

Sep. 01, 2013 Rise Set
Actual Time 7:00 AM CDT 7:51 PM CDT
Civil Twilight 6:35 AM CDT 8:16 PM CDT
Nautical Twilight 6:05 AM CDT 8:46 PM CDT
Astronomical Twilight 5:35 AM CDT 9:16 PM CDT
Moon 3:30 AM CDT (9/1) 5:23 PM CDT (9/1)
Length of Visible Light 13h 40m
Length of Day
12h 50m
Waning Crescent, 13% of the Moon is Illuminated
Sep 1
Waning Crescent
Sep 5
New
Sep 12
First Quarter
Sep 19
Full
Sep 26
Last Quarter

Hourly Weather History & Observations

Time (CDT) Temp. Heat Index Dew Point Humidity Pressure Visibility Wind Dir Wind Speed Gust Speed Precip Events Conditions
12:53 AM 84.0 °F 85.4 °F 64.0 °F 51% 29.79 in 10.0 mi Calm Calm - N/A   Clear
1:53 AM 81.0 °F 83.0 °F 66.0 °F 60% 29.79 in 10.0 mi South 3.5 mph - N/A   Clear
2:53 AM 81.0 °F 82.7 °F 64.9 °F 58% 29.80 in 10.0 mi South 5.8 mph - N/A   Clear
3:53 AM 81.0 °F 82.5 °F 64.0 °F 56% 29.80 in 10.0 mi South 4.6 mph - N/A   Clear
4:53 AM 82.0 °F 83.4 °F 64.0 °F 54% 29.80 in 10.0 mi South 4.6 mph - N/A   Clear
5:53 AM 80.1 °F 81.9 °F 64.9 °F 60% 29.81 in 10.0 mi SSE 4.6 mph - N/A   Clear
6:53 AM 80.1 °F 82.1 °F 66.0 °F 62% 29.82 in 10.0 mi SSE 6.9 mph - N/A   Clear
7:53 AM 81.0 °F 83.3 °F 66.9 °F 62% 29.83 in 10.0 mi South 6.9 mph - N/A   Partly Cloudy
8:53 AM 86.0 °F 88.8 °F 66.9 °F 53% 29.85 in 10.0 mi South 8.1 mph - N/A   Partly Cloudy
9:53 AM 89.1 °F 92.1 °F 66.9 °F 48% 29.87 in 10.0 mi South 8.1 mph - N/A   Partly Cloudy
10:53 AM 93.0 °F 96.4 °F 66.9 °F 42% 29.86 in 10.0 mi South 9.2 mph - N/A   Partly Cloudy
11:53 AM 95.0 °F 97.9 °F 66.0 °F 38% 29.86 in 10.0 mi SW 8.1 mph - N/A   Clear
12:53 PM 98.1 °F 101.8 °F 66.0 °F 35% 29.84 in 10.0 mi SSW 8.1 mph - N/A   Partly Cloudy
1:53 PM 100.0 °F 103.0 °F 64.0 °F 31% 29.82 in 10.0 mi Variable 3.5 mph - N/A   Clear
2:53 PM 102.9 °F 105.5 °F 63.0 °F 27% 29.80 in 10.0 mi SSW 6.9 mph - N/A   Clear
3:53 PM 102.9 °F 104.8 °F 62.1 °F 26% 29.78 in 10.0 mi South 9.2 mph - N/A   Clear
4:53 PM 102.9 °F 105.5 °F 63.0 °F 27% 29.75 in 10.0 mi South 13.8 mph 20.7 mph N/A   Clear
5:53 PM 102.0 °F 104.6 °F 63.0 °F 28% 29.74 in 10.0 mi SE 10.4 mph 17.3 mph N/A   Clear
6:53 PM 99.0 °F 99.5 °F 61.0 °F 28% 29.76 in 10.0 mi SSE 8.1 mph - N/A   Clear
7:53 PM 95.0 °F 96.0 °F 63.0 °F 34% 29.77 in 10.0 mi East 3.5 mph - N/A   Partly Cloudy
8:53 PM 93.9 °F 94.8 °F 62.1 °F 35% 29.78 in 10.0 mi SE 5.8 mph - N/A   Clear
9:53 PM 91.9 °F 94.1 °F 64.9 °F 41% 29.83 in 10.0 mi North 13.8 mph - N/A Thunderstorm Thunderstorm
10:06 PM 91.4 °F 93.2 °F 64.4 °F 41% 29.87 in 10.0 mi North 6.9 mph - N/A   Mostly Cloudy
10:53 PM 89.1 °F 91.0 °F 64.9 °F 45% 29.84 in 10.0 mi South 6.9 mph - N/A   Clear
11:53 PM 87.1 °F 89.9 °F 66.9 °F 51% 29.83 in 10.0 mi South 9.2 mph - N/A   Clear